User: anonymous   Login
Location: Nairn
(57.5833°N, 3.8667°W)
Time: 16:15:16
(UTC+00:00)
Language:

NOSS 8 (A) - Orbit

View from above orbital plane
View from above orbital plane
View from above satellite
View from above satellite

Ground track
Ground track

The orbit data is extracted from the following two-line orbital elements,

1 17997U 87043A   20278.78554027 0.00002800  00000-0  20482-3 0    04
2 17997  63.3115 149.2732 0935817  67.8070 292.1930 13.49760614    00
Epoch (UTC): 04 October 2020 18:51:10
Eccentricity: 0.0935817
inclination: 63.3115°
perigee height: 376 km
apogee height: 1770 km
right ascension of ascending node: 149.2732°
argument of perigee: 67.8070°
revolutions per day: 13.49760614
mean anomaly at epoch: 292.1930°
orbit number at epoch: 0

The dashed part of the orbit path shows where the satellite is in the earth's shadow,  

DLR